{"data":{"norad_id":47818,"intl_designator":"2021-018AH","name":"STARLINK-2401","alt_names":[],"object_type":"PAYLOAD","status":"ACTIVE","operator":null,"country":"US","launch_date":"2021-03-11","launch_site_code":"AFETR","launch_vehicle":null,"mission":null,"orbit_class":"UNKNOWN","rcs_meters":null,"size_class":null,"mass_kg":null,"dimensions":null,"purposes":[],"wikipedia_slug":null,"has_3d_model":false,"image_url":null,"decayed_at":null,"tle_current":{"epoch":"2026-09-07T17:20:29.346432Z","epoch_age_seconds":1183055,"freshness":"AGED","line1":"1 47818U 21018AH  26250.72256188  .13040775  12560-4  26748-3 0  9999","line2":"2 47818  53.0231  76.6678 0008068 277.9201  82.0932 16.46420336305113","mean_motion":16.46420336,"eccentricity":0.0008068,"inclination_deg":53.0231,"raan_deg":76.6678,"arg_perigee_deg":277.9201,"mean_anomaly_deg":82.0932,"bstar":0.00026748,"rev_number":30511,"period_min":87.462476532481,"perigee_km":143.51313520727,"apogee_km":154.04496694729,"semimajor_km":6526.9160510773,"source":"CELESTRAK","updated_at":"2026-09-08T09:00:16.637461Z"}}}